User: anonymous   Login
Location: Dover
(39.1580°N, 75.5250°W)
Time: 02:56:42
(UTC-04:00)
Language:

SeaSat 1 - Orbit

View from above orbital plane
View from above orbital plane
View from above satellite
View from above satellite

Ground track
Ground track

The orbit data is extracted from the following two-line orbital elements,

1 10967U 78064A   15084.86688651  .00000434  00000-0  16885-3 0  9996
2 10967 107.9938 038.7887 0002560 260.0358 100.0498 14.43323066929093
Epoch (UTC): 25 March 2015 20:48:18
Eccentricity: 0.0002560
inclination: 107.9938°
perigee height: 746 km
apogee height: 749 km
right ascension of ascending node: 38.7887°
argument of perigee: 260.0358°
revolutions per day: 14.43323066
mean anomaly at epoch: 100.0498°
orbit number at epoch: 92909

The dashed part of the orbit path shows where the satellite is in the earth's shadow,  

DLR